Regional Weather Roundup
Issued by NWS

Home | Current Version | Previous Version | Text Only | Print | Product List | Glossary Off
Versions: 1 2 3 4 5 6 7 8 9 10 11 12 13 14 15 16 17 18 19 20 21 22 23 24 25 26 27 28 29 30 31 32 33 34 35 36 37 38 39 40 41 42 43 44 45 46 47 48 49 50

000
ASUS43 KLMK 300502
RWRKY
KENTUCKY REGIONAL WEATHER ROUNDUP
NATIONAL WEATHER SERVICE LOUISVILLE KY
100 AM EDT TUE SEP 30 2014

NOTE "FAIR" INDICATES FEW OR NO CLOUDS BELOW 12,000 FEET
WITH NO SIGNIFICANT WEATHER AND/OR OBSTRUCTIONS TO VISIBILITY.

KYZ001>023-026-027-061>063-070>075-300600-
WESTERN AND SOUTH CENTRAL KENTUCKY

CITY           SKY/WX    TMP DP  RH WIND       PRES   REMARKS
PADUCAH        CLEAR     58  56  93 SW3       29.95S
HENDERSON      NOT AVBL
OWENSBORO      CLEAR     60  55  83 CALM      29.95F
HOPKINSVILLE   CLEAR     63  57  81 CALM      29.95F
BOWLING GREEN  CLEAR     62  58  86 CALM      29.96S
GLASGOW        CLEAR     58  58 100 CALM      29.96S FOG
$$

KYZ024-025-028>034-038-045-046-053-300600-
NORTH CENTRAL KENTUCKY

CITY           SKY/WX    TMP DP  RH WIND       PRES   REMARKS
LOUISVILLE/SDF CLEAR     66  57  72 CALM      29.94F
LOUISVILLE/LOU CLEAR     61  56  83 CALM      29.95S
FORT KNOX      CLEAR     55  54  94 CALM      29.95S
$$

KYZ035>037-039>044-047>052-055>060-089>105-300600-
NORTHEAST KENTUCKY

CITY           SKY/WX    TMP DP  RH WIND       PRES   REMARKS
LEXINGTON      CLEAR     59  53  80 CALM      29.96S
COVINGTON      CLEAR     57  52  83 CALM      29.94S
FRANKFORT      CLEAR     55  52  89 CALM      29.94S
$$

KYZ054-064>069-076>088-106>120-300600-
SOUTHEAST KENTUCKY

CITY           SKY/WX    TMP DP  RH WIND       PRES   REMARKS
JACKSON        CLEAR     64  61  90 CALM      29.96F
LONDON         CLEAR     62  58  86 CALM      29.97F
SOMERSET       CLEAR     59  59 100 CALM      29.98S FOG
MIDDLESBORO    PTCLDY    59  58  98 CALM      29.99S
MONTICELLO     CLEAR     56  55  96 CALM      29.98F FOG
$$



USA.gov is the U.S. government's official web portal to all federal, state and local government web resources and services.